(297736) = 2001 WR96 = 2001 XJ260 = 2006 UY71

Discovered at Kitt Peak on 2001-11-17 by Spacewatch.

Orbit

Orbit type: Main Belt

Note: WebGL enabled browser required.

epoch2023-09-13.0
epoch JD2460200.5
perihelion date2018-09-04.29938
perihelion JD2458365.79938
argument of perihelion (°)184.86066
ascending node (°)235.74660
inclination (°)11.54064
eccentricity0.0644994
perihelion distance (AU)2.9429951
Tisserand w.r.t. Jupiter3.2
ΔV w.r.t. Earth (km/sec)11.2
semimajor axis (AU)3.1459039
mean anomaly (°)324.07899
mean daily motion (°/day)0.17663860
aphelion distance (AU)3.349
period (years)5.58
P-vector [x]0.49220930
P-vector [y]0.80523854
P-vector [z]0.33063710
Q-vector [x]-0.85462563
Q-vector [y]0.51918575
Q-vector [z]0.00782219
absolute magnitude15.96
phase slope0.15
uncertainty0
referenceMPEC 2024-A65
observations used244
oppositions13
arc length (days)8085
first opposition used2001
last opposition used2024
residual rms (arc-secs)0.78
perturbers coarse indicatorM-v
perturbers precise indicator003Ek
first observation date used2001-11-17.0
last observation date used2024-01-06.0
computer nameMPCLINUX
JD of orbit computation2456670.921438
perihelion JD uncertainty (days)4.5848E-04
argument of perihelion uncertainty (°)9.4431E-05
ascending node uncertainty (°)3.8085E-05
inclination uncertainty (°)1.0964E-05
eccentricity uncertainty 1.0698E-07
perihelion distance uncertainty (AU)3.3387E-07
Minimum Orbit Intersection Distances (in AU)
for orbit epoch: 2460200.5, reference: E2023-X62
Mercury2.63147
Venus2.22121
Earth1.95444
Mars1.42191
Jupiter1.98142
Saturn6.10609
Uranus15.2905
Neptune26.8905

Observations

250 total observations over interval: 2001 11 17.36516 – 2024 01 06.277716
These data are available for download (format description).

Date (UT) J2000 RA J2000 Dec Magn Location Ref
2001 11 17.36516 03 14 12.45 +19 10 16.3 20.0 V 291 – LPL/Spacewatch II MPS 57246
2001 11 17.37006 03 14 12.19 +19 10 14.4 20.1 V 291 – LPL/Spacewatch II MPS 57246
2001 11 17.37434 03 14 11.99 +19 10 12.5 20.1 V 291 – LPL/Spacewatch II MPS 57246
2001 11 21.22579 03 11 10.51 +18 43 58.1 20.2   704 – Lincoln Laboratory ETS, New Mexico MPS 57246
2001 11 21.24045 03 11 09.88 +18 43 53.0 19.6   704 – Lincoln Laboratory ETS, New Mexico MPS 57246
2001 11 21.25511 03 11 09.16 +18 43 46.6 20.0   704 – Lincoln Laboratory ETS, New Mexico MPS 57246
2001 11 21.26977 03 11 08.39 +18 43 40.8 20.2   704 – Lincoln Laboratory ETS, New Mexico MPS 57246
2001 11 21.28444 03 11 07.82 +18 43 35.6 20.2   704 – Lincoln Laboratory ETS, New Mexico MPS 57246
2001 12 10.13221 02 58 52.50 +16 44 15.9 20.9 V 291 – LPL/Spacewatch II MPS 57253
2001 12 10.15509 02 58 51.79 +16 44 08.3 21.3 V 291 – LPL/Spacewatch II MPS 57253
2001 12 10.18002 02 58 51.07 +16 44 00.0 21.3 V 291 – LPL/Spacewatch II MPS 57253
2001 12 14.14715 02 57 04.71 +16 22 45.3 19.5   704 – Lincoln Laboratory ETS, New Mexico MPS 57253
2001 12 14.17762 02 57 03.92 +16 22 35.6 20.2   704 – Lincoln Laboratory ETS, New Mexico MPS 57253
2001 12 14.20795 02 57 03.12 +16 22 26.2 20.5   704 – Lincoln Laboratory ETS, New Mexico MPS 57253
2006 09 16.38311 23 52 43.06 +14 34 10.2 20.7 V 703 – Catalina Sky Survey MPS 190341
2006 09 16.38788 23 52 42.96 +14 34 06.7 19.8 V 703 – Catalina Sky Survey MPS 190341
2006 09 16.39266 23 52 42.78 +14 34 04.8 21.4 V 703 – Catalina Sky Survey MPS 190341
2006 09 16.39748 23 52 42.42 +14 34 04.5 19.8 V 703 – Catalina Sky Survey MPS 190341
2006 10 17.09452 23 33 16.30 +10 57 37.3 21.3 V 691 – Steward Observatory, Kitt Peak-Spacewatch MPS 184303
2006 10 17.11575 23 33 15.66 +10 57 27.5 20.7 V 691 – Steward Observatory, Kitt Peak-Spacewatch MPS 184303
2006 10 17.13699 23 33 15.08 +10 57 17.5 20.8 V 691 – Steward Observatory, Kitt Peak-Spacewatch MPS 184303
2006 10 21.09701 23 31 34.88 +10 27 24.9 21.2 V 691 – Steward Observatory, Kitt Peak-Spacewatch MPS 184303
2006 10 21.10997 23 31 34.56 +10 27 19.2 20.6 V 691 – Steward Observatory, Kitt Peak-Spacewatch MPS 184303
2006 10 21.12292 23 31 34.25 +10 27 13.5 20.7 V 691 – Steward Observatory, Kitt Peak-Spacewatch MPS 184303
2006 10 23.08956 23 30 51.20 +10 12 41.5 20.7 V 691 – Steward Observatory, Kitt Peak-Spacewatch MPS 186556
2006 10 23.10252 23 30 50.93 +10 12 35.7 20.6 V 691 – Steward Observatory, Kitt Peak-Spacewatch MPS 186556
2006 10 23.11547 23 30 50.61 +10 12 30.4 21.2 V 691 – Steward Observatory, Kitt Peak-Spacewatch MPS 186556
2010 06 04.421603 16 07 40.192 -17 50 13.72 20.31 i F51 – Pan-STARRS 1, Haleakala MPS 337273
2010 06 04.433692 16 07 39.627 -17 50 10.34 20.34 i F51 – Pan-STARRS 1, Haleakala MPS 337273
2010 06 15.28390 15 59 59.78 -17 03 13.1 21.2 V G96 – Mt. Lemmon Survey MPS 331888
2010 06 15.29044 15 59 59.53 -17 03 11.1 21.3 V G96 – Mt. Lemmon Survey MPS 331888
2010 06 15.29698 15 59 59.28 -17 03 09.5 20.6 V G96 – Mt. Lemmon Survey MPS 331888
2010 06 15.30358 15 59 58.99 -17 03 07.6 20.6 V G96 – Mt. Lemmon Survey MPS 331888
2011 08 22.42191 20 44 11.355 -01 01 23.31 20.9 r F51 – Pan-STARRS 1, Haleakala MPS 391050
2011 08 22.44666 20 44 10.348 -01 01 29.54 20.5 r F51 – Pan-STARRS 1, Haleakala MPS 391050
2011 08 29.28747 20 39 58.802 -01 30 52.66 21.3 g F51 – Pan-STARRS 1, Haleakala MPS 390549
2011 08 29.29897 20 39 58.402 -01 30 55.70 21.3 g F51 – Pan-STARRS 1, Haleakala MPS 390549
2012 10 17.21422 02 35 11.65 +21 09 55.7   691 – Steward Observatory, Kitt Peak-Spacewatch MPS 437790
2012 10 17.23193 02 35 10.90 +21 09 49.5   691 – Steward Observatory, Kitt Peak-Spacewatch MPS 437790
2012 10 17.24963 02 35 09.99 +21 09 45.4   691 – Steward Observatory, Kitt Peak-Spacewatch MPS 437790
2012 10 19.521629 02 33 34.771 +20 56 06.42 20.1 w F51 – Pan-STARRS 1, Haleakala MPS 439397
2012 10 19.535872 02 33 34.138 +20 56 01.17 20.0 w F51 – Pan-STARRS 1, Haleakala MPS 439397
2012 10 19.550119 02 33 33.507 +20 55 55.85 20.1 w F51 – Pan-STARRS 1, Haleakala MPS 439397
2012 10 19.564358 02 33 32.881 +20 55 50.48 20.1 w F51 – Pan-STARRS 1, Haleakala MPS 439397
2012 11 03.37402 02 22 24.27 +19 13 54.6 19.6 V G96 – Mt. Lemmon Survey MPS 441526
2012 11 03.38112 02 22 23.95 +19 13 51.6 19.9 V G96 – Mt. Lemmon Survey MPS 441526
2012 11 03.38824 02 22 23.59 +19 13 48.4 20.1 V G96 – Mt. Lemmon Survey MPS 441526
2012 11 03.39696 02 22 23.23 +19 13 44.0 19.9 V G96 – Mt. Lemmon Survey MPS 441526
2012 11 12.32230 02 15 49.172 +18 06 24.72 20.4 g F51 – Pan-STARRS 1, Haleakala MPS 443280
2012 11 12.33496 02 15 48.622 +18 06 19.26 20.3 g F51 – Pan-STARRS 1, Haleakala MPS 443280
2012 11 14.88380 02 14 04.07 +17 47 02.9 20.6   A14 – Les Engarouines Observatory MPS 443280
2012 11 14.90524 02 14 03.19 +17 46 53.4 19.8   A14 – Les Engarouines Observatory MPS 443280
2012 11 14.92719 02 14 02.27 +17 46 43.1 19.7   A14 – Les Engarouines Observatory MPS 443280
2012 11 29.24290 02 06 09.241 +16 05 24.49 20.2 r F51 – Pan-STARRS 1, Haleakala MPS 445871
2012 11 29.25424 02 06 08.926 +16 05 20.21 20.3 r F51 – Pan-STARRS 1, Haleakala MPS 445871
2012 12 13.08625 02 02 29.40 +14 48 02.0 20.6 V G96 – Mt. Lemmon Survey MPS 447649
2012 12 13.09318 02 02 29.32 +14 48 00.0 20.5 V G96 – Mt. Lemmon Survey MPS 447649
2012 12 13.10014 02 02 29.29 +14 47 58.3 20.9 V G96 – Mt. Lemmon Survey MPS 447649
2012 12 13.10716 02 02 29.22 +14 47 56.3 21.1 V G96 – Mt. Lemmon Survey MPS 447649
2014 01 09.52649 08 43 08.072 +02 08 24.77 20.4 w F51 – Pan-STARRS 1, Haleakala MPS 496471
2014 01 09.54087 08 43 07.440 +02 08 24.00 20.8 w F51 – Pan-STARRS 1, Haleakala MPS 496471
2014 01 09.55523 08 43 06.828 +02 08 23.49 20.8 w F51 – Pan-STARRS 1, Haleakala MPS 496471
2015 04 18.24103 13 23 43.56 -17 39 10.1 20.6 V W84 – Cerro Tololo-DECam MPS 789449
2015 04 18.24424 13 23 43.41 -17 39 08.8   W84 – Cerro Tololo-DECam MPS 789449
2015 04 18.24748 13 23 43.27 -17 39 07.5   W84 – Cerro Tololo-DECam MPS 789449
2015 04 18.25072 13 23 43.13 -17 39 06.1   W84 – Cerro Tololo-DECam MPS 789449
2015 04 18.25396 13 23 42.99 -17 39 04.8   W84 – Cerro Tololo-DECam MPS 789449
2015 04 19.23017 13 23 01.21 -17 32 24.9 20.9 V W84 – Cerro Tololo-DECam MPS 789449
2015 04 19.23337 13 23 01.07 -17 32 23.6   W84 – Cerro Tololo-DECam MPS 789449
2015 04 19.23660 13 23 00.92 -17 32 22.3   W84 – Cerro Tololo-DECam MPS 789449
2015 04 19.23984 13 23 00.78 -17 32 20.9   W84 – Cerro Tololo-DECam MPS 789449
2015 04 19.24307 13 23 00.64 -17 32 19.6   W84 – Cerro Tololo-DECam MPS 789449
2017 08 31.32925 23 09 24.97 +11 35 47.5 20.4 V G96 – Mt. Lemmon Survey MPS 814796
2017 08 31.33349 23 09 24.80 +11 35 46.4 20.4 V G96 – Mt. Lemmon Survey MPS 814796
2017 08 31.33775 23 09 24.62 +11 35 45.6 20.7 V G96 – Mt. Lemmon Survey MPS 814796
2017 08 31.34198 23 09 24.42 +11 35 44.1 20.8 V G96 – Mt. Lemmon Survey MPS 814796
2017 09 16.95941 22 57 46.67 +10 07 16.1 20.1   J43 – Oukaimeden Observatory, Marrakech MPS 818723
2017 09 16.96784 22 57 46.34 +10 07 12.8 20.4   J43 – Oukaimeden Observatory, Marrakech MPS 818723
2017 09 16.97626 22 57 45.98 +10 07 09.2 20.3   J43 – Oukaimeden Observatory, Marrakech MPS 818723
2017 09 16.98469 22 57 45.61 +10 07 05.5 20.0   J43 – Oukaimeden Observatory, Marrakech MPS 818723
2017 09 26.21889 22 51 49.01 +09 04 21.5   G96 – Mt. Lemmon Survey MPS 822628
2017 09 26.22468 22 51 48.78 +09 04 19.5 20.3 V G96 – Mt. Lemmon Survey MPS 822628
2017 09 26.23040 22 51 48.59 +09 04 17.3 20.3 V G96 – Mt. Lemmon Survey MPS 822628
2017 09 26.23613 22 51 48.34 +09 04 14.3 20.8 V G96 – Mt. Lemmon Survey MPS 822628
2017 10 15.17794 22 43 27.17 +06 50 02.6 20.5 G G96 – Mt. Lemmon Survey MPS 1140727
2017 10 15.18317 22 43 27.14 +06 50 00.4 20.4 G G96 – Mt. Lemmon Survey MPS 1140727
2017 10 15.18838 22 43 27.02 +06 49 58.5 20.3 G G96 – Mt. Lemmon Survey MPS 1140727
2017 10 15.19363 22 43 26.93 +06 49 56.4 19.7 G G96 – Mt. Lemmon Survey MPS 1140727
2017 10 24.16173 22 41 55.99 +05 52 52.0 20.5 G G96 – Mt. Lemmon Survey MPS 831116
2017 10 24.16697 22 41 55.95 +05 52 49.9 20.9 G G96 – Mt. Lemmon Survey MPS 831116
2017 10 24.17220 22 41 55.91 +05 52 48.0 21.3 G G96 – Mt. Lemmon Survey MPS 831116
